Menu Horizontal
luftaufnahme
Willkommen auf der Webseite der privaten Wetterstation -- Taufkirchen an der Pram -- 48°24'29,52" Nord  <>  13°32'13,20" Ost

Wetterdaten - Dienstag, 24.11.2020 - Taufkirchen an der Pram     336 m über NN
Wetterdaten: aktuell Dienstag, 24.11.2020 04:30
Datum Zeit Temp. A. Feuchte A. Luftdruck Regen Wind Sonnenschein UV Solar Windchill Empfang
24.11.2020 04:30 3,2 °C 96 % 1031,0 hPa 0,0 l/m² 5,7 km/h 0 min 0,0 UV-I 0 W/m² 3,2 °C 100 %
24.11.2020 04:20 3,3 °C 96 % 1030,9 hPa 0,0 l/m² 4,9 km/h 0 min 0,0 UV-I 0 W/m² 3,3 °C 100 %
24.11.2020 04:10 3,4 °C 96 % 1031,0 hPa 0,0 l/m² 2,8 km/h 0 min 0,0 UV-I 0 W/m² 3,4 °C 100 %
24.11.2020 04:00 3,6 °C 96 % 1031,0 hPa 0,0 l/m² 3,0 km/h 0 min 0,0 UV-I 0 W/m² 3,6 °C 99 %
24.11.2020 03:50 3,8 °C 96 % 1031,1 hPa 0,0 l/m² 0,9 km/h 0 min 0,0 UV-I 0 W/m² 3,8 °C 100 %
24.11.2020 03:40 3,8 °C 96 % 1031,0 hPa 0,0 l/m² 0,0 km/h 0 min 0,0 UV-I 0 W/m² 3,8 °C 100 %
24.11.2020 03:30 3,8 °C 96 % 1031,2 hPa 0,0 l/m² 0,0 km/h 0 min 0,0 UV-I 0 W/m² 3,8 °C 91 %
24.11.2020 03:20 3,8 °C 96 % 1031,3 hPa 0,0 l/m² 0,2 km/h 0 min 0,0 UV-I 0 W/m² 3,8 °C 100 %
24.11.2020 03:10 3,8 °C 96 % 1031,5 hPa 0,0 l/m² 0,3 km/h 0 min 0,0 UV-I 0 W/m² 3,8 °C 100 %
24.11.2020 03:00 3,8 °C 96 % 1031,7 hPa 0,0 l/m² 0,7 km/h 0 min 0,0 UV-I 0 W/m² 3,8 °C 100 %
24.11.2020 02:50 3,9 °C 96 % 1031,7 hPa 0,0 l/m² 0,8 km/h 0 min 0,0 UV-I 0 W/m² 3,9 °C 100 %
24.11.2020 02:40 4,1 °C 96 % 1031,6 hPa 0,0 l/m² 1,0 km/h 0 min 0,0 UV-I 0 W/m² 4,1 °C 100 %
24.11.2020 02:30 4,3 °C 96 % 1031,7 hPa 0,0 l/m² 0,5 km/h 0 min 0,0 UV-I 0 W/m² 4,3 °C 100 %
24.11.2020 02:20 4,3 °C 96 % 1031,9 hPa 0,0 l/m² 0,0 km/h 0 min 0,0 UV-I 0 W/m² 4,3 °C 100 %
24.11.2020 02:10 4,4 °C 96 % 1032,0 hPa 0,0 l/m² 0,0 km/h 0 min 0,0 UV-I 0 W/m² 4,4 °C 100 %
24.11.2020 02:00 4,4 °C 96 % 1031,9 hPa 0,0 l/m² 0,2 km/h 0 min 0,0 UV-I 0 W/m² 4,4 °C 99 %
24.11.2020 01:50 4,3 °C 96 % 1031,9 hPa 0,0 l/m² 0,0 km/h 0 min 0,0 UV-I 0 W/m² 4,3 °C 100 %
24.11.2020 01:40 4,3 °C 96 % 1032,0 hPa 0,0 l/m² 0,0 km/h 0 min 0,0 UV-I 0 W/m² 4,3 °C 100 %
24.11.2020 01:30 4,3 °C 96 % 1032,1 hPa 0,0 l/m² 0,0 km/h 0 min 0,0 UV-I 0 W/m² 4,3 °C 100 %
24.11.2020 01:20 4,3 °C 96 % 1032,1 hPa 0,0 l/m² 0,9 km/h 0 min 0,0 UV-I 0 W/m² 4,3 °C 100 %
24.11.2020 01:10 4,3 °C 96 % 1032,3 hPa 0,0 l/m² 0,6 km/h 0 min 0,0 UV-I 0 W/m² 4,3 °C 98 %
24.11.2020 01:00 4,4 °C 96 % 1032,3 hPa 0,0 l/m² 0,0 km/h 0 min 0,0 UV-I 0 W/m² 4,4 °C 100 %
24.11.2020 00:50 4,4 °C 96 % 1032,4 hPa 0,0 l/m² 0,0 km/h 0 min 0,0 UV-I 0 W/m² 4,4 °C 100 %
24.11.2020 00:40 4,4 °C 96 % 1032,3 hPa 0,0 l/m² 0,0 km/h 0 min 0,0 UV-I 0 W/m² 4,4 °C 99 %
24.11.2020 00:30 4,4 °C 96 % 1032,4 hPa 0,0 l/m² 0,0 km/h 0 min 0,0 UV-I 0 W/m² 4,4 °C 100 %
24.11.2020 00:20 4,4 °C 96 % 1032,6 hPa 0,0 l/m² 0,0 km/h 0 min 0,0 UV-I 0 W/m² 4,4 °C 100 %
24.11.2020 00:10 4,4 °C 96 % 1032,6 hPa 0,0 l/m² 0,0 km/h 0 min 0,0 UV-I 0 W/m² 4,4 °C 100 %
24.11.2020 00:00 4,4 °C 96 % 1032,7 hPa 0,0 l/m² 0,0 km/h 0 min 0,0 UV-I 0 W/m² 4,4 °C 100 %
23.11.2020 23:50 4,4 °C 96 % 1032,6 hPa 0,0 l/m² 0,0 km/h 0 min 0,0 UV-I 0 W/m² 4,4 °C 100 %
23.11.2020 23:40 4,5 °C 96 % 1032,6 hPa 0,0 l/m² 0,0 km/h 0 min 0,0 UV-I 0 W/m² 4,5 °C 100 %
23.11.2020 23:30 4,5 °C 96 % 1032,7 hPa 0,0 l/m² 0,0 km/h 0 min 0,0 UV-I 0 W/m² 4,5 °C 100 %
23.11.2020 23:20 4,6 °C 96 % 1032,8 hPa 0,0 l/m² 0,0 km/h 0 min 0,0 UV-I 0 W/m² 4,6 °C 100 %
23.11.2020 23:10 4,6 °C 96 % 1032,7 hPa 0,0 l/m² 0,0 km/h 0 min 0,0 UV-I 0 W/m² 4,6 °C 100 %
23.11.2020 23:00 4,6 °C 96 % 1032,8 hPa 0,0 l/m² 0,0 km/h 0 min 0,0 UV-I 0 W/m² 4,6 °C 100 %
23.11.2020 22:50 4,6 °C 96 % 1032,8 hPa 0,0 l/m² 0,0 km/h 0 min 0,0 UV-I 0 W/m² 4,6 °C 100 %
23.11.2020 22:40 4,6 °C 96 % 1032,9 hPa 0,0 l/m² 0,0 km/h 0 min 0,0 UV-I 0 W/m² 4,6 °C 100 %
23.11.2020 22:30 4,7 °C 96 % 1032,8 hPa 0,0 l/m² 0,0 km/h 0 min 0,0 UV-I 0 W/m² 4,7 °C 99 %
23.11.2020 22:20 4,7 °C 96 % 1033,1 hPa 0,0 l/m² 0,0 km/h 0 min 0,0 UV-I 0 W/m² 4,7 °C 100 %
23.11.2020 22:10 4,7 °C 96 % 1033,1 hPa 0,0 l/m² 0,0 km/h 0 min 0,0 UV-I 0 W/m² 4,7 °C 100 %
23.11.2020 22:00 4,7 °C 96 % 1033,1 hPa 0,0 l/m² 0,0 km/h 0 min 0,0 UV-I 0 W/m² 4,7 °C 100 %
23.11.2020 21:50 4,7 °C 96 % 1033,0 hPa 0,0 l/m² 0,0 km/h 0 min 0,0 UV-I 0 W/m² 4,7 °C 100 %
23.11.2020 21:40 4,7 °C 96 % 1032,9 hPa 0,0 l/m² 0,0 km/h 0 min 0,0 UV-I 0 W/m² 4,7 °C 100 %
23.11.2020 21:30 4,8 °C 96 % 1033,0 hPa 0,0 l/m² 0,0 km/h 0 min 0,0 UV-I 0 W/m² 4,8 °C 100 %
23.11.2020 21:20 4,8 °C 96 % 1032,8 hPa 0,0 l/m² 0,0 km/h 0 min 0,0 UV-I 0 W/m² 4,8 °C 99 %
23.11.2020 21:10 4,8 °C 96 % 1032,8 hPa 0,0 l/m² 0,0 km/h 0 min 0,0 UV-I 0 W/m² 4,8 °C 100 %
23.11.2020 21:00 4,7 °C 95 % 1032,7 hPa 0,0 l/m² 0,0 km/h 0 min 0,0 UV-I 0 W/m² 4,7 °C 100 %
23.11.2020 20:50 4,7 °C 96 % 1032,7 hPa 0,0 l/m² 0,0 km/h 0 min 0,0 UV-I 0 W/m² 4,7 °C 100 %
23.11.2020 20:40 4,8 °C 95 % 1032,7 hPa 0,0 l/m² 0,0 km/h 0 min 0,0 UV-I 0 W/m² 4,8 °C 100 %
23.11.2020 20:30 4,8 °C 95 % 1032,7 hPa 0,0 l/m² 0,0 km/h 0 min 0,0 UV-I 0 W/m² 4,8 °C 100 %
23.11.2020 20:20 4,8 °C 95 % 1032,6 hPa 0,0 l/m² 0,0 km/h 0 min 0,0 UV-I 0 W/m² 4,8 °C 98 %
23.11.2020 20:10 4,8 °C 95 % 1032,6 hPa 0,0 l/m² 0,0 km/h 0 min 0,0 UV-I 0 W/m² 4,8 °C 100 %
23.11.2020 20:00 4,8 °C 95 % 1032,6 hPa 0,0 l/m² 0,0 km/h 0 min 0,0 UV-I 0 W/m² 4,8 °C 100 %
23.11.2020 19:50 4,8 °C 95 % 1032,5 hPa 0,0 l/m² 0,0 km/h 0 min 0,0 UV-I 0 W/m² 4,8 °C 100 %
23.11.2020 19:40 4,8 °C 95 % 1032,4 hPa 0,0 l/m² 0,0 km/h 0 min 0,0 UV-I 0 W/m² 4,8 °C 99 %
23.11.2020 19:30 4,8 °C 95 % 1032,5 hPa 0,0 l/m² 0,0 km/h 0 min 0,0 UV-I 0 W/m² 4,8 °C 100 %
23.11.2020 19:20 4,8 °C 95 % 1032,5 hPa 0,0 l/m² 0,0 km/h 0 min 0,0 UV-I 0 W/m² 4,8 °C 100 %
23.11.2020 19:10 4,8 °C 95 % 1032,5 hPa 0,0 l/m² 0,0 km/h 0 min 0,0 UV-I 0 W/m² 4,8 °C 100 %
23.11.2020 19:00 4,8 °C 95 % 1032,4 hPa 0,0 l/m² 0,0 km/h 0 min 0,0 UV-I 0 W/m² 4,8 °C 100 %
23.11.2020 18:50 4,8 °C 95 % 1032,4 hPa 0,0 l/m² 0,0 km/h 0 min 0,0 UV-I 0 W/m² 4,8 °C 100 %
23.11.2020 18:40 4,7 °C 95 % 1032,4 hPa 0,0 l/m² 0,0 km/h 0 min 0,0 UV-I 0 W/m² 4,7 °C 100 %
23.11.2020 18:30 4,7 °C 95 % 1032,2 hPa 0,0 l/m² 0,0 km/h 0 min 0,0 UV-I 0 W/m² 4,7 °C 99 %
23.11.2020 18:20 4,8 °C 95 % 1032,2 hPa 0,0 l/m² 0,0 km/h 0 min 0,0 UV-I 0 W/m² 4,8 °C 100 %
23.11.2020 18:10 4,8 °C 95 % 1032,3 hPa 0,0 l/m² 0,0 km/h 0 min 0,0 UV-I 0 W/m² 4,8 °C 100 %
23.11.2020 18:00 4,8 °C 95 % 1032,3 hPa 0,0 l/m² 0,0 km/h 0 min 0,0 UV-I 0 W/m² 4,8 °C 100 %
23.11.2020 17:50 4,8 °C 95 % 1032,3 hPa 0,0 l/m² 0,1 km/h 0 min 0,0 UV-I 0 W/m² 4,8 °C 100 %
23.11.2020 17:40 4,8 °C 95 % 1032,2 hPa 0,0 l/m² 0,0 km/h 0 min 0,0 UV-I 0 W/m² 4,8 °C 100 %
23.11.2020 17:30 4,8 °C 95 % 1032,1 hPa 0,0 l/m² 0,0 km/h 0 min 0,0 UV-I 0 W/m² 4,8 °C 100 %
23.11.2020 17:20 4,8 °C 94 % 1032,0 hPa 0,0 l/m² 0,0 km/h 0 min 0,0 UV-I 0 W/m² 4,8 °C 100 %
23.11.2020 17:10 4,8 °C 94 % 1032,0 hPa 0,0 l/m² 0,0 km/h 0 min 0,0 UV-I 0 W/m² 4,8 °C 100 %
23.11.2020 17:00 4,8 °C 94 % 1032,0 hPa 0,0 l/m² 0,0 km/h 0 min 0,0 UV-I 0 W/m² 4,8 °C 100 %
23.11.2020 16:50 4,8 °C 94 % 1032,0 hPa 0,0 l/m² 0,0 km/h 0 min 0,0 UV-I 0 W/m² 4,8 °C 100 %
23.11.2020 16:40 4,8 °C 94 % 1031,9 hPa 0,0 l/m² 0,0 km/h 0 min 0,0 UV-I 0 W/m² 4,8 °C 99 %
23.11.2020 16:30 4,9 °C 94 % 1031,8 hPa 0,0 l/m² 0,0 km/h 0 min 0,0 UV-I 0 W/m² 4,9 °C 100 %
23.11.2020 16:20 4,9 °C 94 % 1031,8 hPa 0,0 l/m² 0,0 km/h 0 min 0,0 UV-I 0 W/m² 4,9 °C 100 %
23.11.2020 16:10 4,9 °C 94 % 1031,6 hPa 0,0 l/m² 0,0 km/h 0 min 0,0 UV-I 1 W/m² 4,9 °C 100 %
23.11.2020 16:00 4,9 °C 94 % 1031,6 hPa 0,2 l/m² 0,0 km/h 0 min 0,0 UV-I 5 W/m² 4,9 °C 91 %
23.11.2020 15:50 4,9 °C 94 % 1031,6 hPa 0,0 l/m² 0,0 km/h 0 min 0,0 UV-I 7 W/m² 4,9 °C 100 %
23.11.2020 15:40 4,9 °C 94 % 1031,6 hPa 0,0 l/m² 0,0 km/h 0 min 0,0 UV-I 10 W/m² 4,9 °C 100 %
23.11.2020 15:30 4,9 °C 93 % 1031,5 hPa 0,0 l/m² 0,0 km/h 0 min 0,0 UV-I 26 W/m² 4,9 °C 100 %
23.11.2020 15:20 4,9 °C 93 % 1031,4 hPa 0,0 l/m² 0,0 km/h 0 min 0,0 UV-I 28 W/m² 4,9 °C 100 %
23.11.2020 15:10 4,9 °C 93 % 1031,4 hPa 0,0 l/m² 0,0 km/h 0 min 0,0 UV-I 24 W/m² 4,9 °C 100 %
23.11.2020 15:00 4,9 °C 93 % 1031,3 hPa 0,0 l/m² 0,0 km/h 0 min 0,0 UV-I 26 W/m² 4,9 °C 99 %
23.11.2020 14:50 4,9 °C 92 % 1031,2 hPa 0,0 l/m² 0,0 km/h 0 min 0,0 UV-I 23 W/m² 4,9 °C 100 %
23.11.2020 14:40 4,9 °C 92 % 1031,2 hPa 0,0 l/m² 0,0 km/h 0 min 0,0 UV-I 26 W/m² 4,9 °C 100 %
23.11.2020 14:30 4,8 °C 92 % 1031,2 hPa 0,0 l/m² 0,0 km/h 0 min 0,0 UV-I 27 W/m² 4,8 °C 100 %
23.11.2020 14:20 4,8 °C 92 % 1031,2 hPa 0,0 l/m² 0,0 km/h 0 min 0,0 UV-I 34 W/m² 4,8 °C 100 %
23.11.2020 14:10 4,8 °C 92 % 1031,2 hPa 0,0 l/m² 0,0 km/h 0 min 0,0 UV-I 28 W/m² 4,8 °C 100 %
23.11.2020 14:00 4,8 °C 92 % 1031,2 hPa 0,0 l/m² 0,0 km/h 0 min 0,0 UV-I 31 W/m² 4,8 °C 100 %
23.11.2020 13:50 4,8 °C 92 % 1031,2 hPa 0,0 l/m² 0,0 km/h 0 min 0,0 UV-I 42 W/m² 4,8 °C 100 %
23.11.2020 13:40 4,8 °C 91 % 1031,1 hPa 0,0 l/m² 0,0 km/h 0 min 0,3 UV-I 54 W/m² 4,8 °C 100 %
23.11.2020 13:30 4,8 °C 91 % 1031,0 hPa 0,0 l/m² 0,0 km/h 0 min 0,5 UV-I 77 W/m² 4,8 °C 100 %
23.11.2020 13:20 4,8 °C 90 % 1031,0 hPa 0,0 l/m² 0,0 km/h 0 min 0,5 UV-I 76 W/m² 4,8 °C 99 %
23.11.2020 13:10 4,7 °C 90 % 1031,2 hPa 0,0 l/m² 0,0 km/h 0 min 0,6 UV-I 66 W/m² 4,7 °C 100 %
23.11.2020 13:00 4,7 °C 89 % 1031,2 hPa 0,0 l/m² 1,2 km/h 0 min 0,6 UV-I 74 W/m² 4,7 °C 100 %
23.11.2020 12:50 4,8 °C 88 % 1031,3 hPa 0,0 l/m² 0,8 km/h 0 min 0,6 UV-I 83 W/m² 4,8 °C 99 %
23.11.2020 12:40 4,9 °C 87 % 1031,2 hPa 0,0 l/m² 2,8 km/h 0 min 0,6 UV-I 95 W/m² 4,9 °C 100 %
23.11.2020 12:30 5,1 °C 86 % 1031,2 hPa 0,0 l/m² 1,0 km/h 10 min 0,7 UV-I 114 W/m² 5,1 °C 100 %
23.11.2020 12:20 5,0 °C 86 % 1031,2 hPa 0,0 l/m² 0,4 km/h 10 min 0,7 UV-I 114 W/m² 5,0 °C 100 %
23.11.2020 12:10 4,8 °C 85 % 1031,2 hPa 0,0 l/m² 0,4 km/h 10 min 0,7 UV-I 104 W/m² 4,8 °C 100 %
23.11.2020 12:00 4,8 °C 86 % 1031,2 hPa 0,0 l/m² 0,2 km/h 0 min 0,7 UV-I 100 W/m² 4,8 °C 100 %
23.11.2020 11:50 4,7 °C 87 % 1031,2 hPa 0,0 l/m² 0,2 km/h 10 min 0,7 UV-I 103 W/m² 4,7 °C 100 %
23.11.2020 11:40 4,6 °C 89 % 1031,2 hPa 0,0 l/m² 0,0 km/h 0 min 0,6 UV-I 89 W/m² 4,6 °C 100 %
23.11.2020 11:30 4,4 °C 89 % 1031,2 hPa 0,0 l/m² 0,0 km/h 0 min 0,6 UV-I 80 W/m² 4,4 °C 100 %
23.11.2020 11:20 4,3 °C 90 % 1031,2 hPa 0,0 l/m² 0,0 km/h 0 min 0,7 UV-I 75 W/m² 4,3 °C 99 %
23.11.2020 11:10 4,1 °C 91 % 1031,1 hPa 0,0 l/m² 0,0 km/h 0 min 0,5 UV-I 80 W/m² 4,1 °C 100 %
23.11.2020 11:00 4,0 °C 92 % 1031,3 hPa 0,0 l/m² 0,7 km/h 0 min 0,5 UV-I 71 W/m² 4,0 °C 100 %
23.11.2020 10:50 3,9 °C 92 % 1031,4 hPa 0,0 l/m² 1,4 km/h 10 min 0,8 UV-I 130 W/m² 3,9 °C 100 %
23.11.2020 10:40 3,7 °C 94 % 1031,2 hPa 0,0 l/m² 0,0 km/h 10 min 0,8 UV-I 132 W/m² 3,7 °C 100 %
23.11.2020 10:30 3,4 °C 95 % 1031,2 hPa 0,0 l/m² 0,1 km/h 0 min 0,8 UV-I 97 W/m² 3,4 °C 100 %
23.11.2020 10:20 3,2 °C 95 % 1031,3 hPa 0,0 l/m² 1,0 km/h 0 min 0,6 UV-I 85 W/m² 3,2 °C 91 %
23.11.2020 10:10 3,1 °C 96 % 1031,2 hPa 0,0 l/m² 0,3 km/h 0 min 0,6 UV-I 82 W/m² 3,1 °C 100 %
23.11.2020 10:00 2,9 °C 96 % 1031,3 hPa 0,0 l/m² 0,1 km/h 0 min 0,6 UV-I 89 W/m² 2,9 °C 100 %
23.11.2020 09:50 2,8 °C 96 % 1031,3 hPa 0,0 l/m² 0,0 km/h 0 min 0,5 UV-I 85 W/m² 2,8 °C 99 %
23.11.2020 09:40 2,7 °C 96 % 1031,4 hPa 0,0 l/m² 0,0 km/h 0 min 0,5 UV-I 81 W/m² 2,7 °C 100 %
23.11.2020 09:30 2,6 °C 96 % 1031,2 hPa 0,0 l/m² 0,0 km/h 0 min 0,3 UV-I 88 W/m² 2,6 °C 100 %
23.11.2020 09:20 2,3 °C 96 % 1031,0 hPa 0,0 l/m² 0,0 km/h 0 min 0,0 UV-I 56 W/m² 2,3 °C 100 %
23.11.2020 09:10 2,2 °C 96 % 1030,9 hPa 0,0 l/m² 0,0 km/h 0 min 0,0 UV-I 32 W/m² 2,2 °C 100 %
23.11.2020 09:00 2,0 °C 96 % 1031,1 hPa 0,0 l/m² 0,0 km/h 0 min 0,0 UV-I 32 W/m² 2,0 °C 100 %
23.11.2020 08:50 1,9 °C 96 % 1030,8 hPa 0,0 l/m² 0,0 km/h 0 min 0,0 UV-I 34 W/m² 1,9 °C 100 %
23.11.2020 08:40 1,8 °C 95 % 1030,6 hPa 0,0 l/m² 0,1 km/h 0 min 0,0 UV-I 45 W/m² 1,8 °C 99 %
23.11.2020 08:30 1,7 °C 95 % 1030,4 hPa 0,0 l/m² 0,0 km/h 0 min 0,0 UV-I 32 W/m² 1,7 °C 100 %
23.11.2020 08:20 1,7 °C 95 % 1030,5 hPa 0,0 l/m² 0,0 km/h 0 min 0,0 UV-I 16 W/m² 1,7 °C 100 %
23.11.2020 08:10 1,5 °C 95 % 1030,5 hPa 0,0 l/m² 0,0 km/h 0 min 0,0 UV-I 8 W/m² 1,5 °C 100 %
23.11.2020 08:00 1,4 °C 95 % 1030,7 hPa 0,0 l/m² 0,0 km/h 0 min 0,0 UV-I 8 W/m² 1,4 °C 100 %
23.11.2020 07:50 1,3 °C 95 % 1030,6 hPa 0,0 l/m² 0,0 km/h 0 min 0,0 UV-I 5 W/m² 1,3 °C 99 %
23.11.2020 07:40 1,2 °C 95 % 1030,5 hPa 0,0 l/m² 0,0 km/h 0 min 0,0 UV-I 0 W/m² 1,2 °C 99 %
23.11.2020 07:30 1,2 °C 95 % 1030,5 hPa 0,0 l/m² 0,0 km/h 0 min 0,0 UV-I 0 W/m² 1,2 °C 100 %
23.11.2020 07:20 1,2 °C 95 % 1030,3 hPa 0,0 l/m² 0,0 km/h 0 min 0,0 UV-I 0 W/m² 1,2 °C 100 %
23.11.2020 07:10 1,1 °C 95 % 1030,2 hPa 0,0 l/m² 0,0 km/h 0 min 0,0 UV-I 0 W/m² 1,1 °C 99 %
23.11.2020 07:00 1,1 °C 95 % 1030,2 hPa 0,0 l/m² 0,0 km/h 0 min 0,0 UV-I 0 W/m² 1,1 °C 100 %
23.11.2020 06:50 1,1 °C 95 % 1030,2 hPa 0,0 l/m² 0,0 km/h 0 min 0,0 UV-I 0 W/m² 1,1 °C 99 %
23.11.2020 06:40 1,1 °C 95 % 1030,0 hPa 0,0 l/m² 0,0 km/h 0 min 0,0 UV-I 0 W/m² 1,1 °C 100 %
23.11.2020 06:30 1,1 °C 95 % 1029,9 hPa 0,0 l/m² 0,0 km/h 0 min 0,0 UV-I 0 W/m² 1,1 °C 100 %
23.11.2020 06:20 1,1 °C 95 % 1029,9 hPa 0,0 l/m² 0,0 km/h 0 min 0,0 UV-I 0 W/m² 1,1 °C 100 %
23.11.2020 06:10 1,1 °C 95 % 1029,7 hPa 0,0 l/m² 0,0 km/h 0 min 0,0 UV-I 0 W/m² 1,1 °C 100 %
23.11.2020 06:00 1,1 °C 95 % 1029,7 hPa 0,0 l/m² 0,0 km/h 0 min 0,0 UV-I 0 W/m² 1,1 °C 99 %
23.11.2020 05:50 1,1 °C 95 % 1029,5 hPa 0,0 l/m² 0,0 km/h 0 min 0,0 UV-I 0 W/m² 1,1 °C 100 %
23.11.2020 05:40 1,1 °C 94 % 1029,6 hPa 0,0 l/m² 0,0 km/h 0 min 0,0 UV-I 0 W/m² 1,1 °C 99 %
23.11.2020 05:30 1,1 °C 94 % 1029,5 hPa 0,0 l/m² 0,0 km/h 0 min 0,0 UV-I 0 W/m² 1,1 °C 99 %
23.11.2020 05:20 1,1 °C 94 % 1029,6 hPa 0,0 l/m² 0,0 km/h 0 min 0,0 UV-I 0 W/m² 1,1 °C 100 %
23.11.2020 05:10 1,1 °C 94 % 1029,5 hPa 0,0 l/m² 0,0 km/h 0 min 0,0 UV-I 0 W/m² 1,1 °C 100 %
23.11.2020 05:00 1,1 °C 94 % 1029,7 hPa 0,0 l/m² 0,0 km/h 0 min 0,0 UV-I 0 W/m² 1,1 °C 100 %
_ Min-Zeit 06:40 12:10 05:50 - 03:40 - - - 07:10 10:20
Minimum _ 1,0 °C 85 % 1029,5 hPa - 0,0 km/h - - - 1,1 °C 91 %
_ Max-Zeit 12:30 04:30 22:20 16:00 04:30 12:30 10:50 10:40 12:30 04:20
Maximum _ 5,1 °C 96 % 1033,1 hPa 0,2 l/m² 5,7 km/h
O-SO
10 min 0,8 UV-I 132 W/m² 5,1 °C 100 %
Durchschnitt _ 3,7 °C 94 % 1031,4 hPa #0,2 l/m² 0,2 km/h #0 min. 0,0 UV-I 0 W/m² 3,7 °C 100 %